Location: Chandler
(33.3060°N, 111.8410°W)
Time: 05:14:30
(UTC-07:00)

Amateur Radio Satellites - All Passes

Search period start: 25 September 2016 04:44
Search period end: 26 September 2016 04:44
Location: Chandler, 33.3060°N, 111.8410°W

Satellite Date Start Highest point End Downlink Frequencies (MHz)
Time Altitude Azimuth
AIST 2 25 Sep 04:47:11 04:50:46 29° 305° (NW) 04:54:22 435.215
YUBILEINY 25 Sep 04:47:48 04:54:36 25° 288° (WNW) 05:01:26 435.215
AIST 1 25 Sep 04:53:23 04:57:23 35° 91° (E) 05:01:23
STARS 25 Sep 05:00:03 05:03:50 28° 263° (W) 05:07:37 437.465
ISS 25 Sep 05:10:41 05:13:36 29° 229° (SW) 05:16:29 145.825
CUSAT 1 25 Sep 05:30:52 05:37:31 30° 71° (ENE) 05:43:18 437.405
HORYU 2 25 Sep 05:32:16 05:36:43 75° 102° (ESE) 05:41:10 437.375
Cosmos 2504 25 Sep 05:45:08 05:50:36 21° 287° (WNW) 05:55:57 435.465 / 435.565
NOAA 15 25 Sep 05:48:21 05:52:43 26° 96° (E) 05:57:02 137.62
Cubesat XI-IV 25 Sep 05:53:15 05:57:25 23° 96° (E) 06:01:35 437.490
CUTE-I 25 Sep 05:54:22 05:58:38 24° 96° (E) 06:02:52 437.470
PCSat 25 Sep 05:56:52 06:00:57 22° 306° (NW) 06:05:04 145.827
BRITE-PL 25 Sep 05:59:20 06:04:12 79° 102° (ESE) 06:08:38 437.365/2234.400
AO-7 25 Sep 06:02:34 06:08:24 22° 302° (WNW) 06:14:13 29.400- 29.500
STRAND 1 25 Sep 06:04:07 06:07:52 21° 67° (ENE) 06:11:37 437.568
GOMX 1 25 Sep 06:05:10 06:09:07 32° 97° (E) 06:12:53 467.674
NOAA 18 25 Sep 06:08:47 06:13:18 26° 97° (E) 06:17:48 137.9125
RS-15 25 Sep 06:09:49 06:22:10 78° 246° (WSW) 06:34:06 29.354- 29.394
AO-85 25 Sep 06:17:02 06:20:37 29° 55° (NE) 06:24:02 145.980
CUBESAT XI-V 25 Sep 06:19:45 06:21:09 11° 268° (W) 06:22:33 437.345
LilacSat-2 25 Sep 06:25:03 06:28:48 52° 100° (E) 06:32:33 437.200
O/OREOS (USA 219) 25 Sep 06:25:50 06:28:34 16° 99° (E) 06:31:17 437.305
DANDE 25 Sep 06:29:52 06:37:42 42° 75° (ENE) 06:45:03 436.750
AIST 1 25 Sep 06:32:32 06:35:04 15° 285° (WNW) 06:37:35
DOVE 4 25 Sep 06:42:16 06:46:04 33° 98° (E) 06:49:47 437.250
CUSAT 1 25 Sep 07:12:29 07:19:42 44° 271° (W) 07:25:47 437.405
GONETS M04 25 Sep 07:14:22 07:19:41 18° 80° (E) 07:25:01
NOAA 15 25 Sep 07:27:46 07:32:26 32° 290° (WNW) 07:37:03 137.62
PRISM 25 Sep 07:29:19 07:30:47 12° 66° (ENE) 07:32:16 437.425
Cubesat XI-IV 25 Sep 07:32:39 07:37:30 36° 289° (WNW) 07:42:21 437.490
CUTE-I 25 Sep 07:33:51 07:38:39 35° 290° (WNW) 07:43:28 437.470
STRAND 1 25 Sep 07:42:04 07:46:44 37° 261° (W) 07:51:27 437.568
GOMX 1 25 Sep 07:44:06 07:46:54 17° 292° (WNW) 07:49:36 467.674
NOAA 18 25 Sep 07:49:03 07:53:54 33° 291° (WNW) 07:58:45 137.9125
CUTE 1.7 + AOD 2 25 Sep 07:49:10 07:53:05 34° 98° (E) 07:56:59 437.475
CANX-2 25 Sep 07:49:39 07:53:44 41° 99° (E) 07:57:47 2200.000
SEEDS 25 Sep 07:56:31 08:00:12 28° 97° (E) 08:03:51 437.485
AO-85 25 Sep 07:58:10 08:00:43 17° 251° (WSW) 08:03:12 145.980
O/OREOS (USA 219) 25 Sep 08:03:22 08:07:34 37° 293° (WNW) 08:11:50 437.305
CUBEBUG 2 25 Sep 08:08:13 08:11:21 19° 96° (E) 08:14:32 437.445
DANDE 25 Sep 08:12:46 08:20:20 39° 271° (W) 08:27:26 436.750
CINEMA 3 25 Sep 08:16:08 08:20:17 75° 283° (WNW) 08:24:31 145.822/145.860
HO-68 25 Sep 08:20:59 08:28:09 75° 104° (ESE) 08:35:17 435.675
DOVE 4 25 Sep 08:21:03 08:23:27 15° 292° (WNW) 08:25:50 437.250
RS-15 25 Sep 08:26:51 08:32:33 15° 263° (W) 08:38:11 29.354- 29.394
AAUSAT CUBESAT 2 25 Sep 08:27:50 08:31:40 34° 98° (E) 08:35:27 437.432
FUNcube-1 25 Sep 08:29:57 08:31:45 12° 93° (E) 08:33:34 145.935
UWE-3 25 Sep 08:32:27 08:35:58 24° 97° (E) 08:39:34 435.000/436.395/437.385
PRISM 25 Sep 09:01:37 09:05:37 46° 260° (W) 09:09:40 437.425
Cosmos 2499 25 Sep 09:02:03 09:09:22 87° 95° (E) 09:16:27 435.465 / 435.565
GONETS M04 25 Sep 09:06:35 09:15:24 78° 277° (W) 09:24:18
ZACube-1 25 Sep 09:08:14 09:12:19 40° 99° (E) 09:16:27 437.345
COMPASS 1 25 Sep 09:08:51 09:12:58 53° 284° (WNW) 09:17:02 437.405
ANTELSAT 25 Sep 09:10:07 09:13:12 20° 70° (ENE) 09:16:18 437.575/2403.000
Oscar 11 25 Sep 09:12:06 09:16:15 42° 99° (E) 09:20:23 145.826/435.025
CUTE 1.7 + AOD 2 25 Sep 09:25:56 09:28:36 16° 291° (WNW) 09:31:17 437.475
CANX-2 25 Sep 09:26:59 09:29:11 14° 292° (WNW) 09:31:23 2200.000
TIGRISAT 25 Sep 09:30:41 09:34:30 32° 73° (ENE) 09:38:18 435.000
SEEDS 25 Sep 09:32:38 09:35:40 19° 290° (WNW) 09:38:41 437.485
CUBEBUG 2 25 Sep 09:44:17 09:47:55 28° 288° (WNW) 09:51:38 437.445
HUMSAT D 25 Sep 09:55:13 09:58:41 24° 96° (E) 10:02:09 437.325/437.525
FUNcube-1 25 Sep 10:04:00 10:08:07 44° 285° (WNW) 10:12:19 145.935
AAUSAT CUBESAT 2 25 Sep 10:04:18 10:06:49 16° 291° (WNW) 10:09:19 437.432
UWE-3 25 Sep 10:08:54 10:12:17 23° 289° (WNW) 10:15:44 435.000/436.395/437.385
UNISAT 6 25 Sep 10:09:47 10:14:04 75° 257° (WSW) 10:18:21 437.425
HO-68 25 Sep 10:10:34 10:15:04 18° 300° (WNW) 10:19:34 435.675
DELFI C3 25 Sep 10:13:02 10:17:05 88° 284° (WNW) 10:21:04 145.870
BEESAT 3 25 Sep 10:24:06 10:27:56 44° 59° (ENE) 10:31:42 437.485
QB50P1 25 Sep 10:25:09 10:27:54 17° 69° (ENE) 10:30:39 145.935-145.965
DUCHIFAT 1 25 Sep 10:26:38 10:29:05 15° 68° (ENE) 10:31:31 145.980
PHONESAT 2.4 25 Sep 10:35:17 10:37:53 29° 147° (SSE) 10:40:31 2401.200-2431.200
POPSAT HIP 1 25 Sep 10:37:42 10:41:03 24° 71° (ENE) 10:44:25 437.405
JAS-2 25 Sep 10:45:15 10:50:31 29° 65° (ENE) 10:56:21 435.910
ZACube-1 25 Sep 10:45:53 10:48:14 15° 292° (WNW) 10:50:37 437.345
ANTELSAT 25 Sep 10:46:04 10:49:43 27° 263° (W) 10:53:22 437.575/2403.000
Oscar 11 25 Sep 10:49:47 10:51:58 14° 292° (WNW) 10:54:09 145.826/435.025
NANOSAT C BR1 25 Sep 10:55:30 10:59:22 37° 73° (ENE) 11:03:13 145.865
Cosmos 2499 25 Sep 11:00:54 11:03:17 12° 292° (WNW) 11:05:39 435.465 / 435.565
TIGRISAT 25 Sep 11:08:32 11:11:13 16° 265° (W) 11:13:54 435.000
GONETS M04 25 Sep 11:10:29 11:13:38 12° 296° (WNW) 11:16:47
BEESAT 2 25 Sep 11:13:27 11:17:28 81° 59° (ENE) 11:21:28 435.950
QB50P2 25 Sep 11:15:44 11:19:56 79° 77° (ENE) 11:24:10 145.880/145.840
POLYITAN 1 25 Sep 11:17:59 11:22:11 79° 77° (ENE) 11:26:24 437.675
ESTCUBE 1 25 Sep 11:23:56 11:28:08 37° 98° (E) 11:32:18 437.505/2401.250
HUMSAT D 25 Sep 11:30:50 11:34:08 22° 289° (WNW) 11:37:27 437.325/437.525
VELOX 1 25 Sep 11:36:06 11:39:34 23° 96° (E) 11:43:01 145.980
DX 1 25 Sep 11:38:41 11:41:00 14° 94° (E) 11:43:18 434.975-435.025
M-CUBED/EXP-1 PRIME 25 Sep 11:41:14 11:41:52 10° 99° (E) 11:42:31 437.505
CUBEBUG 1 25 Sep 11:47:18 11:51:25 41° 99° (E) 11:55:29 437.445
QB50P1 25 Sep 11:59:40 12:03:24 31° 262° (W) 12:07:09 145.935-145.965
DUCHIFAT 1 25 Sep 12:00:37 12:04:26 34° 261° (W) 12:08:16 145.980
BEESAT 3 25 Sep 12:03:51 12:05:08 11° 252° (WSW) 12:06:25 437.485
PHONESAT 2.4 25 Sep 12:11:11 12:13:59 39° 341° (NNW) 12:16:47 2401.200-2431.200
POPSAT HIP 1 25 Sep 12:13:26 12:16:43 22° 264° (W) 12:20:00 437.405
BUGSAT 1 25 Sep 12:14:24 12:18:30 63° 258° (WSW) 12:22:34 437.445
AISAT 25 Sep 12:27:46 12:32:09 78° 285° (WNW) 12:36:31 437.250
JAS-2 25 Sep 12:29:35 12:35:15 40° 264° (W) 12:41:39 435.910
NANOSAT C BR1 25 Sep 12:33:01 12:35:10 14° 266° (W) 12:37:20 145.865
50 SAT 25 Sep 12:33:09 12:36:46 60° 285° (WNW) 12:40:21 437.505
AUBIESAT-1 25 Sep 12:38:21 12:41:37 62° 105° (ESE) 12:44:55 437.475
TISAT 1 25 Sep 12:39:40 12:40:07 10° 93° (E) 12:40:32 437.305
SPROUT 25 Sep 12:41:24 12:45:39 76° 102° (ESE) 12:49:53 437.525
UKube-1 25 Sep 12:49:48 12:54:08 81° 105° (ESE) 12:58:25 .
ESTCUBE 1 25 Sep 13:01:42 13:04:36 17° 292° (WNW) 13:07:30 437.505/2401.250
Oscar 19 25 Sep 13:04:27 13:09:38 75° 76° (ENE) 13:14:50 437.125/150
YUBILEINY 25 Sep 13:05:18 13:11:55 23° 71° (ENE) 13:18:29 435.215
PCSat 25 Sep 13:05:22 13:08:46 17° 51° (NE) 13:12:08 145.827
AIST 2 25 Sep 13:11:40 13:15:45 48° 59° (ENE) 13:19:48 435.215
VELOX 1 25 Sep 13:12:20 13:15:55 25° 290° (WNW) 13:19:30 145.980
DX 1 25 Sep 13:13:16 13:17:18 38° 287° (WNW) 13:21:19 434.975-435.025
M-CUBED/EXP-1 PRIME 25 Sep 13:13:42 13:16:29 26° 292° (WNW) 13:19:16 437.505
AO-7 25 Sep 13:16:03 13:19:10 13° 52° (NE) 13:22:16 29.400- 29.500
CUBEBUG 1 25 Sep 13:25:06 13:27:18 14° 293° (WNW) 13:29:28 437.445
Gurwin Techsat 1B 25 Sep 13:40:03 13:45:20 76° 75° (ENE) 13:50:40 435.225
PHONESAT 2.4 25 Sep 13:48:18 13:50:34 19° 357° (N) 13:52:51 2401.200-2431.200
Cosmos 2504 25 Sep 13:48:41 13:52:07 13° 69° (ENE) 13:55:35 435.465 / 435.565
ITAMSAT 1 25 Sep 13:52:42 13:56:53 25° 68° (ENE) 14:01:04 435.822/435.867
TISAT 1 25 Sep 14:11:57 14:15:57 48° 286° (WNW) 14:19:57 437.305
SO-50 25 Sep 14:45:48 14:50:08 33° 112° (ESE) 14:54:27 436.795
ITUPSAT 1 25 Sep 14:46:18 14:51:04 59° 101° (E) 14:55:47 437.325
PCSat 25 Sep 14:47:13 14:52:34 62° 248° (WSW) 14:57:53 145.827
Cosmos 2491 25 Sep 14:48:59 14:57:40 71° 93° (E) 15:06:26 435.465 / 435.565
AIST 2 25 Sep 14:52:18 14:53:45 12° 253° (WSW) 14:55:12 435.215
YUBILEINY 25 Sep 15:00:41 15:09:13 63° 268° (W) 15:17:43 435.215
SWISSCUBE 25 Sep 15:00:53 15:05:42 83° 284° (WNW) 15:10:29 437.505
AO-7 25 Sep 15:02:12 15:10:27 70° 70° (ENE) 15:18:42 29.400- 29.500
BEESAT 25 Sep 15:14:14 15:18:59 66° 285° (WNW) 15:23:43 436.000
PHONESAT 2.4 25 Sep 15:24:36 15:27:15 28° 14° (NNE) 15:29:53 2401.200-2431.200
MOZHAYETS 4 25 Sep 15:27:35 15:31:27 26° 96° (E) 15:35:18
ITAMSAT 1 25 Sep 15:31:37 15:36:09 31° 262° (W) 15:40:43 435.822/435.867
Cosmos 2504 25 Sep 15:38:42 15:46:12 87° 265° (W) 15:54:12 435.465 / 435.565
KKS-1 25 Sep 16:11:52 16:16:10 50° 100° (E) 16:20:27 437.445
HORYU 2 25 Sep 16:26:12 16:30:17 39° 73° (ENE) 16:34:24 437.375
ITUPSAT 1 25 Sep 16:26:22 16:28:20 12° 295° (WNW) 16:30:19 437.325
SO-50 25 Sep 16:26:41 16:30:37 24° 307° (NW) 16:34:32 436.795
O/OREOS (USA 219) 25 Sep 16:39:09 16:42:09 17° 61° (ENE) 16:45:07 437.305
CUBESAT XI-V 25 Sep 16:40:35 16:43:58 19° 94° (E) 16:47:18 437.345
AIST 1 25 Sep 16:41:40 16:45:58 90° 327° (NNW) 16:50:13
Cosmos 2491 25 Sep 16:49:03 16:55:12 21° 290° (WNW) 17:01:26 435.465 / 435.565
STARS 25 Sep 16:52:43 16:57:04 70° 101° (E) 17:01:25 437.465
AO-7 25 Sep 16:57:52 17:03:42 21° 265° (W) 17:09:34 29.400- 29.500
PHONESAT 2.4 25 Sep 17:00:35 17:03:31 55° 209° (SSW) 17:06:25 2401.200-2431.200
BRITE-PL 25 Sep 17:04:11 17:09:45 60° 75° (ENE) 17:15:20 437.365/2234.400
NOAA 15 25 Sep 17:04:22 17:08:48 28° 69° (ENE) 17:13:16 137.62
LilacSat-2 25 Sep 17:04:28 17:06:31 14° 69° (ENE) 17:08:36 437.200
MOZHAYETS 4 25 Sep 17:04:43 17:08:28 25° 290° (WNW) 17:12:14
GOMX 1 25 Sep 17:08:10 17:12:44 28° 71° (ENE) 17:17:12 467.674
Cubesat XI-IV 25 Sep 17:11:18 17:15:36 26° 68° (ENE) 17:19:54 437.490
CUTE-I 25 Sep 17:12:15 17:16:36 26° 69° (ENE) 17:20:58 437.470
NOAA 18 25 Sep 17:30:56 17:35:47 34° 69° (ENE) 17:40:38 137.9125
Cosmos 2504 25 Sep 17:36:32 17:38:32 11° 279° (W) 17:40:34 435.465 / 435.565
DOVE 4 25 Sep 17:43:09 17:47:20 26° 71° (ENE) 17:51:20 437.250
KKS-1 25 Sep 17:50:29 17:52:14 12° 294° (WNW) 17:54:00 437.445
HORYU 2 25 Sep 18:04:35 18:06:57 14° 266° (W) 18:09:20 437.375
CUBESAT XI-V 25 Sep 18:17:10 18:21:21 33° 288° (WNW) 18:25:29 437.345
O/OREOS (USA 219) 25 Sep 18:17:25 18:21:41 38° 256° (WSW) 18:25:55 437.305
RS-15 25 Sep 18:18:29 18:26:45 24° 101° (E) 18:35:16 29.354- 29.394
CUSAT 1 25 Sep 18:26:45 18:31:40 31° 86° (E) 18:37:39 437.405
LilacSat-2 25 Sep 18:37:16 18:40:32 28° 263° (W) 18:43:50 437.200
CUTE 1.7 + AOD 2 25 Sep 18:39:03 18:41:26 15° 68° (ENE) 18:43:49 437.475
CANX-2 25 Sep 18:39:18 18:42:07 18° 69° (ENE) 18:44:56 2200.000
NOAA 15 25 Sep 18:43:50 18:48:26 30° 263° (W) 18:53:03 137.62
BRITE-PL 25 Sep 18:45:12 18:48:28 16° 268° (W) 18:51:45 437.365/2234.400
HO-68 25 Sep 18:45:19 18:51:41 36° 67° (ENE) 18:58:04 435.675
GOMX 1 25 Sep 18:45:50 18:50:38 31° 263° (W) 18:55:19 467.674
SEEDS 25 Sep 18:46:08 18:47:41 12° 67° (ENE) 18:49:14 437.485
Cubesat XI-IV 25 Sep 18:50:46 18:55:29 32° 262° (W) 19:00:13 437.490
CUTE-I 25 Sep 18:51:49 18:56:28 31° 262° (W) 19:01:09 437.470
Cosmos 2499 25 Sep 18:57:50 19:03:38 23° 74° (ENE) 19:09:41 435.465 / 435.565
NOAA 18 25 Sep 19:11:56 19:16:24 26° 263° (W) 19:20:54 137.9125
CINEMA 3 25 Sep 19:13:13 19:17:44 58° 76° (ENE) 19:22:04 145.822/145.860
AAUSAT CUBESAT 2 25 Sep 19:15:27 19:17:33 14° 68° (ENE) 19:19:39 437.432
DOVE 4 25 Sep 19:20:23 19:24:50 29° 263° (W) 19:29:09 437.250
GONETS M04 25 Sep 19:22:30 19:30:49 44° 78° (ENE) 19:39:00
UWE-3 25 Sep 19:27:36 19:29:03 12° 67° (ENE) 19:30:29 435.000/436.395/437.385
DANDE 25 Sep 19:33:48 19:37:58 39° 89° (E) 19:43:26 436.750
COMPASS 1 25 Sep 19:54:58 19:59:01 56° 76° (ENE) 20:03:08 437.405
STRAND 1 25 Sep 19:56:12 20:01:21 79° 284° (WNW) 20:06:30 437.568
ZACube-1 25 Sep 20:01:05 20:03:55 18° 70° (ENE) 20:06:44 437.345
Oscar 11 25 Sep 20:03:30 20:06:37 20° 70° (ENE) 20:09:44 145.826/435.025
CUSAT 1 25 Sep 20:08:18 20:13:27 34° 288° (WNW) 20:19:50 437.405
ISS 25 Sep 20:10:58 20:14:09 59° 134° (SE) 20:17:22 145.825
CUTE 1.7 + AOD 2 25 Sep 20:13:02 20:16:55 36° 262° (W) 20:20:51 437.475
CANX-2 25 Sep 20:13:58 20:17:42 30° 263° (W) 20:21:26 2200.000
SEEDS 25 Sep 20:18:55 20:22:54 45° 261° (W) 20:26:58 437.485
AO-85 25 Sep 20:26:07 20:30:49 33° 112° (ESE) 20:35:19 145.980
RS-15 25 Sep 20:26:14 20:37:44 79° 299° (WNW) 20:49:57 29.354- 29.394
HO-68 25 Sep 20:32:47 20:39:16 37° 261° (W) 20:45:47 435.675
CUBEBUG 2 25 Sep 20:37:38 20:41:49 56° 259° (W) 20:45:56 437.445
PRISM 25 Sep 20:47:24 20:51:03 30° 98° (E) 20:54:40 437.425
AAUSAT CUBESAT 2 25 Sep 20:48:47 20:52:38 38° 262° (W) 20:56:32 437.432
Cosmos 2499 25 Sep 20:49:35 20:56:59 58° 268° (W) 21:04:58 435.465 / 435.565
JUGNU 25 Sep 20:51:34 20:55:19 17° 170° (S) 20:59:02 437.505
DELFI C3 25 Sep 20:54:52 20:58:18 28° 72° (ENE) 21:01:45 145.870
FUNcube-1 25 Sep 20:55:04 20:59:13 80° 77° (ENE) 21:03:21 145.935
UWE-3 25 Sep 21:01:03 21:05:05 45° 261° (W) 21:09:05 435.000/436.395/437.385
DANDE 25 Sep 21:17:45 21:21:09 19° 294° (WNW) 21:25:14 436.750
GONETS M04 25 Sep 21:19:42 21:27:17 34° 274° (W) 21:34:50
ZACube-1 25 Sep 21:36:25 21:39:58 27° 263° (W) 21:43:32 437.345
Oscar 11 25 Sep 21:38:50 21:42:32 28° 263° (W) 21:46:14 145.826/435.025
ISS 25 Sep 21:49:08 21:50:54 14° 329° (NNW) 21:52:41 145.825
UNISAT 6 25 Sep 22:05:34 22:09:27 30° 98° (E) 22:13:24 437.425
AO-85 25 Sep 22:06:47 22:11:16 28° 305° (NW) 22:15:32 145.980
HUMSAT D 25 Sep 22:16:59 22:20:56 53° 260° (W) 22:24:57 437.325/437.525
ESTCUBE 1 25 Sep 22:19:55 22:23:19 21° 69° (ENE) 22:26:44 437.505/2401.250
PRISM 25 Sep 22:23:24 22:26:05 17° 291° (WNW) 22:28:43 437.425
M-CUBED/EXP-1 PRIME 25 Sep 22:23:55 22:25:01 11° 64° (ENE) 22:26:05 437.505
DELFI C3 25 Sep 22:30:36 22:33:07 16° 266° (W) 22:35:39 145.870
VELOX 1 25 Sep 22:30:45 22:32:49 13° 66° (ENE) 22:34:52 145.980
JUGNU 25 Sep 22:39:18 22:43:40 22° 180° (S) 22:48:02 437.505
CUBEBUG 1 25 Sep 22:39:38 22:43:00 22° 70° (ENE) 22:46:22 437.445
ANTELSAT 25 Sep 22:40:38 22:45:04 80° 102° (ESE) 22:49:35 437.575/2403.000
RS-15 25 Sep 22:43:43 22:52:31 23° 324° (NW) 23:01:40 29.354- 29.394
TIGRISAT 25 Sep 23:01:55 23:06:15 60° 284° (WNW) 23:10:40 435.000
QB50P2 25 Sep 23:05:49 23:08:38 17° 95° (E) 23:11:26 145.880/145.840
50 SAT 25 Sep 23:05:56 23:09:01 27° 73° (ENE) 23:12:08 437.505
POLYITAN 1 25 Sep 23:08:02 23:10:52 17° 95° (E) 23:13:41 437.675
AUBIESAT-1 25 Sep 23:19:53 23:23:50 41° 70° (ENE) 23:27:33 437.475
AISAT 25 Sep 23:20:37 23:24:58 53° 74° (ENE) 23:29:19 437.250
SO-50 25 Sep 23:23:24 23:24:36 11° 46° (NE) 23:25:46 436.795
SPROUT 25 Sep 23:30:52 23:34:41 32° 72° (ENE) 23:38:29 437.525
SRMSAT 25 Sep 23:31:39 23:35:36 18° 171° (S) 23:39:32 437.500
UKube-1 25 Sep 23:40:08 23:44:07 38° 73° (ENE) 23:48:09 .
JAS-2 25 Sep 23:42:45 23:50:07 42° 97° (E) 23:57:05 435.910
UNISAT 6 25 Sep 23:42:46 23:45:57 20° 290° (WNW) 23:49:10 437.425
QB50P1 25 Sep 23:47:52 23:52:00 54° 101° (E) 23:56:07 145.935-145.965
DUCHIFAT 1 25 Sep 23:48:22 23:52:24 46° 100° (E) 23:56:26 145.980
M-CUBED/EXP-1 PRIME 25 Sep 23:54:55 23:59:10 54° 255° (WSW) 00:03:08 437.505
ESTCUBE 1 25 Sep 23:56:00 23:59:54 29° 263° (W) 00:03:51 437.505/2401.250
BUGSAT 1 26 Sep 00:00:47 00:04:01 23° 97° (E) 00:07:16 437.445
POPSAT HIP 1 26 Sep 00:01:06 00:05:18 80° 102° (ESE) 00:09:31 437.405
DX 1 26 Sep 00:03:57 00:08:18 80° 257° (WSW) 00:12:42 434.975-435.025
VELOX 1 26 Sep 00:04:32 00:08:49 47° 260° (W) 00:13:08 145.980
BEESAT 3 26 Sep 00:11:21 00:14:13 20° 110° (ESE) 00:17:06 437.485
CUBEBUG 1 26 Sep 00:15:20 00:19:05 27° 263° (W) 00:22:51 437.445
NANOSAT C BR1 26 Sep 00:19:05 00:23:14 63° 284° (WNW) 00:27:23 145.865
JUGNU 26 Sep 00:28:14 00:32:02 18° 190° (S) 00:35:49 437.505
50 SAT 26 Sep 00:40:42 00:42:32 13° 266° (W) 00:44:22 437.505
QB50P2 26 Sep 00:40:45 00:44:25 30° 288° (WNW) 00:48:06 145.880/145.840
POLYITAN 1 26 Sep 00:42:59 00:46:39 30° 288° (WNW) 00:50:20 437.675
AUBIESAT-1 26 Sep 00:56:28 00:58:18 13° 260° (W) 01:00:06 437.475
TISAT 1 26 Sep 00:58:55 01:03:04 68° 76° (ENE) 01:07:14 437.305
AISAT 26 Sep 01:00:37 01:01:40 11° 267° (W) 01:02:43 437.250
SO-50 26 Sep 01:01:05 01:05:38 78° 243° (WSW) 01:10:03 436.795
BEESAT 2 26 Sep 01:01:21 01:04:58 37° 114° (ESE) 01:08:39 435.950
Cosmos 2491 26 Sep 01:05:27 01:12:49 28° 73° (ENE) 01:20:04 435.465 / 435.565
SPROUT 26 Sep 01:07:56 01:10:37 16° 265° (W) 01:13:20 437.525
RS-15 26 Sep 01:08:38 01:12:09 11° 1° (N) 01:15:40 29.354- 29.394
UKube-1 26 Sep 01:17:56 01:20:16 14° 266° (W) 01:22:36 .
SRMSAT 26 Sep 01:19:43 01:24:07 22° 181° (S) 01:28:31 437.500
Oscar 19 26 Sep 01:20:36 01:25:20 36° 98° (E) 01:30:01 437.125/150
DUCHIFAT 1 26 Sep 01:26:11 01:27:38 12° 293° (WNW) 01:29:04 145.980
QB50P1 26 Sep 01:26:54 01:27:15 10° 294° (WNW) 01:27:35 145.935-145.965
JAS-2 26 Sep 01:27:53 01:34:50 36° 293° (WNW) 01:41:32 435.910
BUGSAT 1 26 Sep 01:36:16 01:39:14 20° 290° (WNW) 01:42:12 437.445
BEESAT 3 26 Sep 01:48:26 01:51:41 25° 305° (NW) 01:54:59 437.485
ITUPSAT 1 26 Sep 01:48:57 01:53:24 42° 72° (ENE) 01:57:53 437.325
Gurwin Techsat 1B 26 Sep 02:00:42 02:05:44 42° 99° (E) 02:10:44 435.225
YUBILEINY 26 Sep 02:00:50 02:08:14 31° 85° (E) 02:15:35 435.215
SWISSCUBE 26 Sep 02:02:58 02:07:40 70° 76° (ENE) 02:12:25 437.505
ITAMSAT 1 26 Sep 02:11:17 02:13:15 12° 92° (E) 02:15:14 435.822/435.867
BEESAT 26 Sep 02:16:10 02:20:54 87° 81° (E) 02:25:42 436.000
Cosmos 2504 26 Sep 02:25:40 02:27:25 11° 81° (E) 02:29:09 435.465 / 435.565
MOZHAYETS 4 26 Sep 02:26:29 02:29:11 16° 67° (ENE) 02:31:53
BEESAT 2 26 Sep 02:40:33 02:42:55 15° 309° (NW) 02:45:18 435.950
ISS 26 Sep 02:43:11 02:44:50 13° 30° (NNE) 02:46:30 145.825
Oscar 19 26 Sep 03:00:30 03:04:22 22° 292° (WNW) 03:08:13 437.125/150
Cosmos 2491 26 Sep 03:01:26 03:09:55 53° 270° (W) 03:18:21 435.465 / 435.565
AIST 2 26 Sep 03:05:35 03:09:01 27° 112° (ESE) 03:12:31 435.215
KKS-1 26 Sep 03:06:04 03:09:50 28° 71° (ENE) 03:13:37 437.445
SRMSAT 26 Sep 03:09:00 03:12:38 17° 191° (S) 03:16:17 437.500
AO-7 26 Sep 03:09:20 03:16:19 29° 98° (E) 03:23:15 29.400- 29.500
RS-15 26 Sep 03:21:56 03:31:34 25° 38° (NE) 03:41:03 29.354- 29.394
ITUPSAT 1 26 Sep 03:28:30 03:31:22 16° 266° (W) 03:34:14 437.325
CUBESAT XI-V 26 Sep 03:41:16 03:43:14 13° 66° (ENE) 03:45:14 437.345
Gurwin Techsat 1B 26 Sep 03:41:31 03:45:20 20° 293° (WNW) 03:49:07 435.225
PCSat 26 Sep 03:41:57 03:46:39 31° 108° (ESE) 03:51:22 145.827
STARS 26 Sep 03:45:16 03:49:15 35° 72° (ENE) 03:53:15 437.465
ITAMSAT 1 26 Sep 03:47:54 03:53:04 64° 286° (WNW) 03:58:13 435.822/435.867
YUBILEINY 26 Sep 03:56:13 04:04:36 48° 282° (WNW) 04:12:59 435.215
MOZHAYETS 4 26 Sep 04:01:40 04:05:57 41° 261° (W) 04:10:16
Cosmos 2504 26 Sep 04:12:08 04:19:44 90° 177° (S) 04:26:59 435.465 / 435.565
ISS 26 Sep 04:18:22 04:21:38 67° 225° (SW) 04:24:53 145.825
HORYU 2 26 Sep 04:24:09 04:24:45 10° 93° (E) 04:25:20 437.375
